DELTA 1 DEB, 7193

Orbit data source: Space-Track

DELTA 1 DEB, 7193 is space debris in SSO originally from a launch on Tue, 06 Nov 1973 UTC launched from the Air Force Western Test Range (AFWTR). Debris objects in space refer to the collection of defunct objects orbiting the Earth. Examples of debris include non-operational satellites, rocket bodies, and fragments generated from explosions, collisions, or faulty payload assembly.

Loading next visibility...
Identifier
7193, 1973-086FB
Orbit
SSO
Country
Flag of USUS
Related business
Manufacturer
Unknown
Mission
Spacecraft
Bus & Motor
Unknown
Mass
Unknown
Launch date (UTC)
1973-11-06 (52 years ago)
Launch vehicle
Unknown
Launch site
Air Force Western Test Range (AFWTR)
Object type
Payload
Rocket body
Debris
Shape & HBR
Unknown shape, 0.2 m
Radar Cross Section
Small (<0.1 m²)

Expand to show TLE details & history
Last TLE update: 22 hours ago

TLE from 22 hours ago
0 DELTA 1 DEB
1  7193U 73086FB  26122.10321572  .00000168  00000-0  20367-2 0  9993
2  7193 101.8352 187.3839 0293871 273.2093 115.3389 12.09177672309225
Epoch: 2026-05-02T02:28Z
TLE epoch observation values (Epoch: 2026-05-02T02:28:37.838Z)
Latitude
30.84833°
Longitude
-76.95528°
Altitude
1,750.008 km
Speed
6.96 km/s
True Right ascension
12h 00m 54s
True Declination
30° 42' 56"
Sunlit
Object was in daylight at epoch
Visualization orbit readout
Latitude
Unknown
Longitude
Unknown
Altitude
Unknown
Speed
Unknown
Apparent Right ascension
Unknown
Apparent Declination
Unknown
Sunlit
N/A
Visualization observer readout
Local Sidereal Time
08:21:37
Azimuth
Unknown
Elevation
Unknown
Doppler factor
Unknown
Orbital elements
Apogee altitude
1,873.193 km
Perigee altitude
1,402.072 km
Semi-major axis
8,015.77 km
Eccentricity
0.02939
Inclination
101.8352°
RAAN
187.3839°
Arg. of periapsis
273.2093°
True anomaly
118.33394°
Mean anomaly
115.3389°
Eccentric anomaly
116.84125°
Mean motion
3.0243 °/min
Orbital period
119.04 mins
BSTAR
0.0020367
Loading maneuver chart data...
Computing Atmospheric mass density...
Loading historical data...
Loading historical data...
Loading historical data...
Loading historical data...
Loading historical data...
Loading historical data...
Loading historical data...

Documentation

Showing up to 5 results
|